• In Uzbekistan
  • List of Countries
  • For 7 days
  • Water Temperature
  • Satellite Maps
  • Weather Map
  • Weather Widgets
  • user-avatar
    Login

    Hourly Weather Townsville

    Today, 18 August, Friday

    Time Temperature Precipitation Wind Pressure Humidity
    00:00 +20°C° 0 mm 1 mps 754 mmHg 95%
    01:00 +20°C° 0 mm 1 mps 754 mmHg 95%
    02:00 +20°C° 0 mm 1 mps 754 mmHg 95%
    03:00 +20°C° 0 mm 1 mps 754 mmHg 96%
    04:00 +20°C° 0 mm 1 mps 754 mmHg 96%
    05:00 +20°C° 0 mm 1 mps 754 mmHg 96%
    06:00 +20°C° 0 mm 1 mps 755 mmHg 95%
    07:00 +20°C° 0 mm 1 mps 755 mmHg 95%
    08:00 +23°C° 0 mm 1 mps 755 mmHg 80%
    09:00 +27°C° 0 mm 1 mps 756 mmHg 65%
    10:00 +30°C° 0 mm 1 mps 756 mmHg 54%
    11:00 +31°C° 0 mm 1 mps 755 mmHg 48%
    12:00 +32°C° 0 mm 2 mps 755 mmHg 42%
    13:00 +35°C° 0 mm 2 mps 755 mmHg 36%
    14:00 +34°C° 0 mm 2 mps 754 mmHg 38%
    15:00 +34°C° 0 mm 2 mps 754 mmHg 40%
    16:00 +32°C° 0 mm 2 mps 753 mmHg 43%
    17:00 +29°C° 0 mm 2 mps 754 mmHg 54%
    18:00 +27°C° 0 mm 2 mps 754 mmHg 66%
    19:00 +24°C° 0 mm 2 mps 754 mmHg 78%
    20:00 +24°C° 0 mm 1 mps 755 mmHg 79%
    21:00 +23°C° 0 mm 1 mps 755 mmHg 81%
    22:00 +23°C° 0 mm 1 mps 755 mmHg 82%
    23:00 +22°C° 0 mm 1 mps 755 mmHg 82%

    Tomorrow, 19 August, Saturday

    Time Temperature Precipitation Wind Pressure Humidity
    00:00 +22°C° 0 mm 1 mps 755 mmHg 83%
    01:00 +22°C° 0 mm 1 mps 756 mmHg 83%
    02:00 +22°C° 0 mm 1 mps 755 mmHg 79%
    03:00 +20°C° 0 mm 2 mps 755 mmHg 75%
    04:00 +20°C° 0 mm 2 mps 755 mmHg 71%
    05:00 +20°C° 0 mm 3 mps 756 mmHg 60%
    06:00 +19°C° 0 mm 3 mps 756 mmHg 49%
    07:00 +19°C° 0 mm 4 mps 756 mmHg 38%
    08:00 +22°C° 0 mm 4 mps 757 mmHg 31%
    09:00 +25°C° 0 mm 5 mps 757 mmHg 24%
    10:00 +28°C° 0 mm 5 mps 757 mmHg 17%
    11:00 +29°C° 0 mm 5 mps 757 mmHg 16%
    12:00 +32°C° 0 mm 5 mps 756 mmHg 15%
    13:00 +33°C° 0 mm 5 mps 756 mmHg 13%
    14:00 +33°C° 0 mm 5 mps 756 mmHg 14%
    15:00 +32°C° 0 mm 6 mps 755 mmHg 14%
    16:00 +32°C° 0 mm 6 mps 755 mmHg 14%
    17:00 +28°C° 0 mm 5 mps 755 mmHg 21%
    18:00 +25°C° 0 mm 4 mps 756 mmHg 28%
    19:00 +21°C° 0 mm 4 mps 756 mmHg 35%
    20:00 +20°C° 0 mm 4 mps 756 mmHg 37%
    21:00 +19°C° 0 mm 3 mps 757 mmHg 40%
    22:00 +18°C° 0 mm 3 mps 757 mmHg 43%
    23:00 +18°C° 0 mm 3 mps 757 mmHg 43%

    Day after tomorrow, 20 August, Sunday

    Time Temperature Precipitation Wind Pressure Humidity
    00:00 +17°C° 0 mm 3 mps 757 mmHg 42%
    01:00 +16°C° 0 mm 3 mps 757 mmHg 42%
    02:00 +16°C° 0 mm 3 mps 757 mmHg 38%
    03:00 +16°C° 0 mm 3 mps 756 mmHg 35%
    04:00 +14°C° 0 mm 4 mps 756 mmHg 31%
    05:00 +14°C° 0 mm 4 mps 757 mmHg 31%
    06:00 +14°C° 0 mm 4 mps 757 mmHg 31%
    07:00 +13°C° 0 mm 4 mps 758 mmHg 31%
    08:00 +16°C° 0 mm 5 mps 758 mmHg 27%
    09:00 +20°C° 0 mm 5 mps 758 mmHg 24%
    10:00 +23°C° 0 mm 5 mps 758 mmHg 20%
    11:00 +25°C° 0 mm 5 mps 758 mmHg 18%
    12:00 +27°C° 0 mm 4 mps 757 mmHg 16%
    13:00 +28°C° 0 mm 4 mps 756 mmHg 14%
    14:00 +28°C° 0 mm 4 mps 756 mmHg 15%
    15:00 +28°C° 0 mm 4 mps 755 mmHg 16%
    16:00 +28°C° 0 mm 4 mps 755 mmHg 16%
    17:00 +25°C° 0 mm 4 mps 755 mmHg 29%
    18:00 +21°C° 0 mm 3 mps 756 mmHg 41%
    19:00 +18°C° 0 mm 3 mps 756 mmHg 53%
    20:00 +18°C° 0 mm 3 mps 756 mmHg 63%
    21:00 +17°C° 0 mm 3 mps 757 mmHg 73%
    22:00 +16°C° 0 mm 3 mps 757 mmHg 83%
    23:00 +15°C° 0 mm 4 mps 757 mmHg 83%

    21 August, Monday

    Time Temperature Precipitation Wind Pressure Humidity
    00:00 +14°C° 0 mm 4 mps 757 mmHg 84%
    01:00 +14°C° 0 mm 4 mps 757 mmHg 84%
    02:00 +14°C° 0 mm 4 mps 756 mmHg 81%
    03:00 +13°C° 0 mm 4 mps 756 mmHg 77%
    04:00 +13°C° 0 mm 4 mps 756 mmHg 74%
    05:00 +13°C° 0 mm 4 mps 757 mmHg 70%
    06:00 +13°C° 0 mm 4 mps 757 mmHg 66%
    07:00 +12°C° 0 mm 3 mps 757 mmHg 61%
    08:00 +17°C° 0 mm 4 mps 758 mmHg 55%
    09:00 +20°C° 0 mm 4 mps 758 mmHg 48%
    10:00 +23°C° 0 mm 4 mps 758 mmHg 42%
    11:00 +25°C° 0 mm 4 mps 757 mmHg 41%
    12:00 +26°C° 0 mm 4 mps 756 mmHg 40%
    13:00 +28°C° 0 mm 4 mps 756 mmHg 39%
    14:00 +27°C° 0 mm 4 mps 755 mmHg 43%
    15:00 +27°C° 0 mm 4 mps 755 mmHg 47%
    16:00 +26°C° 0 mm 3 mps 755 mmHg 51%
    17:00 +24°C° 0 mm 3 mps 755 mmHg 60%
    18:00 +21°C° 0 mm 3 mps 755 mmHg 69%
    19:00 +19°C° 0 mm 2 mps 756 mmHg 78%
    20:00 +19°C° 0 mm 2 mps 756 mmHg 82%
    21:00 +18°C° 0 mm 2 mps 757 mmHg 86%
    22:00 +18°C° 0 mm 2 mps 757 mmHg 89%
    23:00 +18°C° 0 mm 2 mps 757 mmHg 90%

    22 August, Tuesday

    Time Temperature Precipitation Wind Pressure Humidity
    00:00 +18°C° 0 mm 2 mps 756 mmHg 91%
    01:00 +18°C° 0 mm 2 mps 756 mmHg 93%
    02:00 +18°C° 0 mm 2 mps 756 mmHg 93%
    03:00 +18°C° 0 mm 2 mps 756 mmHg 93%
    04:00 +18°C° 0 mm 2 mps 756 mmHg 94%
    05:00 +18°C° 0 mm 2 mps 756 mmHg 94%
    06:00 +18°C° 0 mm 2 mps 757 mmHg 93%
    07:00 +18°C° 0 mm 2 mps 757 mmHg 93%
    08:00 +21°C° 0 mm 2 mps 757 mmHg 81%
    09:00 +24°C° 0 mm 2 mps 758 mmHg 70%
    10:00 +27°C° 0 mm 3 mps 758 mmHg 58%
    11:00 +27°C° 0 mm 3 mps 757 mmHg 56%
    12:00 +28°C° 0 mm 3 mps 756 mmHg 54%
    13:00 +29°C° 0 mm 3 mps 755 mmHg 52%
    14:00 +28°C° 0 mm 3 mps 755 mmHg 53%
    15:00 +28°C° 0 mm 3 mps 755 mmHg 55%
    16:00 +28°C° 0 mm 3 mps 755 mmHg 57%
    17:00 +26°C° 0 mm 3 mps 755 mmHg 66%
    18:00 +24°C° 0 mm 3 mps 756 mmHg 74%
    19:00 +21°C° 0 mm 2 mps 756 mmHg 82%
    20:00 +21°C° 0 mm 2 mps 757 mmHg 85%
    21:00 +20°C° 0 mm 2 mps 757 mmHg 87%
    22:00 +20°C° 0 mm 2 mps 757 mmHg 89%
    23:00 +20°C° 0 mm 2 mps 757 mmHg 91%

    23 August, Wednesday

    Time Temperature Precipitation Wind Pressure Humidity
    00:00 +19°C° 0 mm 2 mps 757 mmHg 92%
    01:00 +19°C° 0 mm 2 mps 757 mmHg 94%
    02:00 +19°C° 0 mm 2 mps 756 mmHg 93%
    03:00 +19°C° 0 mm 2 mps 756 mmHg 93%
    04:00 +20°C° 0 mm 2 mps 756 mmHg 93%
    05:00 +20°C° 0 mm 2 mps 757 mmHg 92%
    06:00 +20°C° 0 mm 2 mps 757 mmHg 91%
    07:00 +20°C° 0 mm 2 mps 757 mmHg 90%
    08:00 +23°C° 0 mm 2 mps 758 mmHg 79%
    09:00 +25°C° 0 mm 3 mps 758 mmHg 68%
    10:00 +27°C° 0 mm 3 mps 758 mmHg 58%
    11:00 +28°C° 0 mm 3 mps 757 mmHg 53%
    12:00 +29°C° 0 mm 3 mps 756 mmHg 48%
    13:00 +30°C° 0 mm 3 mps 756 mmHg 43%
    14:00 +30°C° 0 mm 3 mps 755 mmHg 46%
    15:00 +29°C° 0 mm 4 mps 755 mmHg 48%
    16:00 +28°C° 0 mm 4 mps 755 mmHg 50%
    17:00 +26°C° 0 mm 3 mps 755 mmHg 59%
    18:00 +24°C° 0 mm 3 mps 756 mmHg 68%
    19:00 +21°C° 0 mm 3 mps 756 mmHg 77%
    20:00 +21°C° 0 mm 3 mps 757 mmHg 81%
    21:00 +20°C° 0 mm 3 mps 757 mmHg 86%
    22:00 +20°C° 0 mm 3 mps 757 mmHg 90%
    23:00 +20°C° 0 mm 3 mps 757 mmHg 91%
    Show more